Location: Nicosia
(35.1670°N, 33.3670°E)
Time: 21:35:56
(UTC+02:00)

Hubble Space Telescope - Pass Details

Date: 29 November 2023
Orbit: 516 x 519 km, 28.5° (Epoch: 27 February)

Event Time Altitude Azimuth Distance (km) Brightness Sun altitude
Rises 17:34:39 0° 254° (WSW) 2,619 6.5 -12.2°
Reaches altitude 10° 17:37:03 10° 244° (WSW) 1,734 4.8 -12.6°
Maximum altitude 17:40:36 31° 181° (S) 918 2.1 -13.3°
Enters shadow 17:43:43 13° 121° (ESE) 1,577 2.8 -13.9°
